{"data":{"norad_id":62363,"epoch":"2026-05-25T01:19:22.776672Z","epoch_age_seconds":69450,"freshness":"FRESH","line1":"1 62363U 24244B   26145.05512473 -.00000024  00000+0  00000+0 0  9996","line2":"2 62363   0.0225 319.4468 0006123  94.0818 306.5272  5.00115263 19714","mean_motion":5.00115263,"eccentricity":0.0006123,"inclination_deg":0.0225,"raan_deg":319.4468,"arg_perigee_deg":94.0818,"mean_anomaly_deg":306.5272,"bstar":0,"rev_number":1971,"period_min":287.93362381344,"perigee_km":8057.0507008885,"apogee_km":8074.7388622082,"semimajor_km":14444.031781548,"source":"CELESTRAK","updated_at":"2026-05-25T13:38:14.521057Z"}}